Theta_e
284 285 285 285 285 286 286 286 285 286 287 289 291 290 291 292 295 298 300 302 301 302 302 301 301 301 299 298 297 296 294 292 289 288 289 290 289 289 289 289 290 288 288
283 284 284 284 284 284 284 285 285 284 286 286 289 289 289 290 292 294 297 299 299 299 300 300 300 298 298 297 295 294 294 292 289 286 288 288 288 289 288 287 290 289 287
283 283 283 282 283 283 283 284 284 283 284 285 287 288 288 288 290 293 295 297 298 299 299 298 298 296 295 294 294 293 293 292 290 288 287 288 288 289 287 287 287 285 287
282 282 281 282 282 282 283 283 282 282 282 284 285 288 288 288 289 291 293 294 296 297 298 298 297 295 295 293 293 292 291 290 289 288 286 286 287 288 286 284 283 283 284
281 281 281 282 282 281 282 281 281 281 282 283 283 286 288 287 288 289 291 292 293 295 296 297 297 295 292 293 293 291 290 289 288 287 285 284 284 284 284 284 283 282 280
280 280 281 281 280 280 279 279 280 280 280 281 283 284 286 286 288 290 290 290 292 293 294 295 295 289 291 292 292 292 292 289 287 287 286 285 285 285 284 283 282 280 279
280 280 280 279 278 277 278 279 278 277 279 280 282 283 285 287 288 288 289 290 291 292 293 293 292 292 290 292 292 292 291 292 291 289 286 286 285 285 284 282 281 280 279
279 278 278 277 276 277 278 277 276 277 278 279 280 283 284 286 288 288 288 289 290 291 292 292 291 290 291 290 290 289 289 289 289 288 288 287 286 285 285 283 282 279 276
273 274 275 275 275 276 274 274 275 277 278 279 281 281 284 286 288 288 288 287 288 288 289 291 290 289 290 290 287 285 285 285 290 290 290 289 289 287 284 281 278 277 277
273 273 274 273 274 272 272 273 275 277 278 279 279 281 284 285 288 288 288 285 285 284 284 285 285 285 288 288 286 285 284 284 285 286 286 285 283 283 283 281 280 277 273
272 272 272 272 270 271 272 273 274 275 275 277 279 281 283 286 286 288 288 285 285 284 284 284 285 287 287 287 287 285 285 285 286 281 278 277 276 275 275 275 276 276 272
270 269 268 268 269 271 271 272 272 274 275 276 277 278 281 284 286 287 288 288 287 284 284 285 285 287 288 288 286 288 288 286 283 280 278 276 275 273 273 272 272 272 271
267 266 266 268 269 271 270 270 270 271 273 275 276 276 278 280 283 286 287 288 287 285 285 285 286 287 288 287 288 288 286 284 282 280 278 277 276 273 272 271 271 271 269
264 264 266 267 268 268 269 270 270 271 272 273 274 275 276 278 280 284 285 285 285 285 285 285 285 286 286 286 285 286 284 284 283 281 280 277 274 272 271 272 271 270 269
264 264 265 267 266 267 268 269 271 272 273 273 275 275 276 277 280 284 286 285 284 285 284 284 284 284 284 284 284 284 283 283 282 281 277 275 273 273 272 272 271 269 269
261 263 263 264 264 265 266 267 272 274 275 277 278 278 278 280 282 284 286 288 287 286 284 283 283 283 282 283 282 282 282 282 281 280 278 276 274 273 272 272 271 268 271
258 260 261 262 262 263 264 265 264 268 273 274 276 277 278 279 281 282 284 288 287 286 283 283 283 282 282 282 282 282 281 281 281 279 278 277 275 274 273 273 273 272 272
254 257 258 260 261 262 263 264 264 264 264 266 271 274 276 277 278 280 283 287 284 285 284 283 282 283 282 282 282 282 281 280 280 279 278 277 276 275 274 273 273 272 269
256 258 259 259 260 261 261 262 263 264 264 264 266 269 270 273 276 278 281 284 283 283 283 283 283 283 282 282 282 282 282 280 281 280 279 277 277 276 274 274 274 272 266
255 257 258 258 258 259 260 261 263 262 263 264 263 264 265 268 268 269 273 278 284 284 284 284 284 283 283 283 282 283 282 281 280 280 278 277 276 276 274 273 272 269 263
256 256 256 256 256 258 260 261 261 261 261 261 261 262 270 267 264 267 269 270 278 284 285 285 284 284 284 283 283 283 282 280 280 280 278 276 275 274 274 272 270 268 263
254 253 253 254 257 257 258 259 259 259 258 258 258 259 266 261 262 263 265 268 268 280 285 285 285 285 284 284 283 283 281 280 280 279 276 275 275 273 271 269 268 265 263
253 253 253 251 252 254 255 255 257 256 256 256 256 257 258 258 259 261 262 264 267 267 284 285 285 285 285 285 284 284 282 280 280 278 276 274 273 272 271 269 267 264 264
251 251 251 249 250 252 251 253 254 254 254 254 255 256 256 257 258 259 261 263 264 268 277 285 285 285 285 284 284 284 283 282 280 277 276 274 273 272 271 269 267 265 264
248 250 249 248 248 249 250 251 251 251 253 253 254 255 255 256 257 258 260 261 263 267 271 285 285 285 284 283 283 283 281 280 279 277 276 275 273 272 271 269 266 264 263
250 249 248 247 246 246 247 249 250 252 252 253 253 254 254 255 256 258 260 260 262 266 269 282 284 284 283 283 282 280 279 279 276 276 276 274 273 272 270 268 265 265 263
Wind_Speed
9 11 12 13 13 12 11 13 14 15 16 16 18 20 19 17 16 16 13 11 9 11 10 11 15 13 10 10 8 7 6 4 4 2 2 4 4 6 5 4 3 4 2
6 10 11 12 13 13 13 14 15 16 16 16 17 17 19 18 16 16 15 12 10 12 12 12 13 9 13 11 11 12 10 7 4 6 3 4 4 5 5 5 4 4 2
7 9 11 12 12 15 15 14 15 16 16 17 16 17 17 18 16 16 15 15 12 14 13 12 12 11 11 9 9 10 10 7 6 7 5 3 2 4 3 3 5 4 2
7 9 10 12 13 13 15 15 15 15 16 16 16 17 17 16 16 15 14 15 14 13 13 13 13 14 14 12 11 9 8 7 4 8 4 6 3 3 3 4 3 2 3
7 10 11 12 13 13 14 15 15 15 15 15 17 16 17 15 12 14 15 14 14 14 12 12 13 14 15 15 10 11 10 9 7 7 7 4 3 4 5 3 3 4 2
7 10 10 12 13 14 15 15 15 16 16 16 15 17 17 14 24 25 20 15 14 14 13 11 11 11 14 19 16 15 14 12 8 6 5 9 8 6 3 5 5 4 4
6 9 10 11 14 14 14 15 15 16 16 18 18 17 18 17 27 27 24 15 13 13 13 10 8 8 12 12 16 16 13 15 13 9 11 9 8 9 8 7 4 3 3
6 9 9 11 13 14 15 15 15 14 16 16 18 18 17 15 27 27 22 16 13 13 11 10 11 9 11 13 13 13 11 11 10 5 7 6 5 6 7 3 6 5 5
5 6 9 11 13 14 15 15 14 14 15 15 16 19 18 17 25 23 19 12 9 7 6 7 9 11 15 19 13 11 10 8 13 15 14 14 15 14 9 7 5 6 3
4 8 10 10 12 14 14 14 12 13 15 13 18 17 18 16 21 21 17 5 6 3 3 4 10 10 21 20 12 13 13 11 11 11 11 12 11 9 10 3 6 6 3
7 7 8 10 12 13 14 12 12 14 15 13 15 16 17 14 15 21 20 7 6 4 5 5 5 16 18 17 13 10 11 12 15 11 8 6 6 4 3 2 3 2 3
7 8 9 10 9 10 13 12 11 12 12 12 13 13 11 14 19 16 20 16 9 6 6 4 4 16 18 18 13 17 22 16 10 8 7 6 6 4 4 4 5 6 5
8 8 9 11 10 10 12 12 10 9 10 10 10 11 14 12 12 22 19 16 13 7 3 7 11 16 17 14 17 20 18 9 9 8 7 5 5 6 7 6 6 8 7
9 10 9 10 11 10 8 8 9 9 9 9 10 11 12 13 12 11 9 7 10 8 6 6 8 9 10 9 11 11 7 8 8 7 6 6 7 6 6 3 4 3 4
8 9 10 8 10 11 10 9 9 9 10 11 10 11 12 12 12 23 21 8 5 6 5 4 5 6 7 7 7 8 7 7 7 6 7 7 7 7 5 3 3 2 2
10 8 8 9 8 9 10 11 14 19 20 22 22 17 11 22 28 28 26 19 15 12 4 5 6 7 7 7 7 7 6 8 6 7 7 8 7 7 7 5 3 2 3
8 10 8 8 8 9 9 10 14 12 19 19 19 21 24 23 26 27 27 19 14 14 6 6 6 7 7 7 7 7 6 6 8 7 8 8 8 7 9 7 6 4 2
6 10 7 7 8 8 9 10 9 11 13 12 14 20 20 26 28 27 26 16 4 11 6 6 7 7 7 8 7 6 6 7 7 7 8 8 8 9 8 8 7 6 3
7 6 6 7 8 9 9 9 9 9 10 11 13 14 14 25 26 24 22 8 5 7 6 7 7 7 7 8 8 7 8 8 8 7 7 8 8 8 8 7 7 7 7
5 9 8 7 7 8 7 8 8 8 9 9 9 11 13 15 12 12 10 11 6 6 7 8 7 7 8 9 8 8 8 8 8 8 7 7 7 8 8 8 8 8 3
5 6 8 6 6 7 7 8 8 8 8 8 9 10 24 12 11 10 10 10 12 6 6 8 7 7 7 8 8 8 8 8 9 9 8 8 8 8 7 7 7 6 6
4 5 5 5 6 7 7 7 7 7 8 8 9 10 22 8 9 10 10 10 10 13 6 8 7 8 8 8 9 9 10 9 9 9 8 8 8 8 7 7 7 7 7
4 5 5 4 4 7 6 6 6 6 7 8 8 9 9 8 9 10 11 11 11 11 8 7 8 8 8 8 8 9 11 10 10 10 10 9 9 9 8 8 9 8 7
4 4 4 4 4 5 5 7 7 7 7 8 8 8 9 10 10 11 11 11 11 11 13 7 8 11 10 9 8 7 7 8 8 10 14 11 10 11 9 9 9 9 8
3 4 4 4 4 5 6 6 6 6 7 7 8 8 9 10 10 10 11 11 11 12 15 7 7 11 14 14 12 11 12 16 12 13 10 12 12 14 11 9 10 8 8
2 2 3 3 3 4 4 6 7 7 7 8 8 8 9 10 10 10 11 12 12 12 14 7 7 11 13 11 12 14 16 16 15 15 11 11 12 10 9 10 14 9 10
Wind_Direction
320 322 321 321 320 320 318 319 320 318 319 320 320 319 317 314 312 301 286 271 242 241 225 213 211 206 192 184 185 174 181 150 143 106 115 150 146 162 147 146 162 114 74
290 312 312 314 316 318 317 317 319 316 315 316 315 317 314 313 311 306 290 275 256 250 234 221 218 199 197 191 182 178 184 176 149 140 145 151 174 165 149 144 123 86 80
300 309 308 312 315 316 315 315 316 315 313 312 315 313 313 309 308 302 294 278 261 248 240 221 211 192 196 173 196 192 179 180 144 137 140 136 139 147 134 144 129 122 101
298 304 307 310 311 311 310 313 313 312 309 309 311 308 310 304 303 299 291 284 267 251 236 223 211 196 195 176 181 183 168 145 145 140 119 140 133 138 149 149 145 93 100
292 305 306 308 309 309 310 312 311 311 308 305 306 307 309 308 302 307 299 285 275 260 239 226 217 202 195 180 175 169 165 148 162 153 139 127 143 165 181 152 140 128 107
293 302 308 312 312 313 313 311 311 311 311 309 306 309 307 309 305 302 301 289 276 268 252 229 216 187 180 167 163 169 169 149 167 148 160 169 168 161 149 161 145 133 192
289 304 312 313 312 313 308 311 311 313 311 312 310 310 305 305 307 303 301 292 277 265 252 228 205 192 175 164 159 157 162 164 170 157 165 173 162 168 160 144 162 132 151
288 305 310 311 308 306 308 308 309 309 312 311 308 307 305 303 308 304 299 291 273 261 247 222 201 180 176 159 157 156 161 159 144 125 150 145 115 146 143 158 147 110 85
281 287 307 306 301 310 306 306 309 308 307 305 306 307 304 303 307 302 302 292 274 248 225 205 195 181 165 158 154 151 146 139 132 131 130 127 134 130 137 124 151 151 123
291 301 301 298 303 302 299 302 300 301 301 308 303 304 302 301 305 305 296 271 270 239 202 191 184 171 167 159 158 156 152 146 134 128 123 114 105 125 154 172 167 159 123
300 297 296 303 298 294 294 298 301 306 307 305 306 307 310 304 307 306 297 262 250 229 205 191 191 168 165 157 154 157 150 137 134 123 116 118 99 94 83 78 75 126 139
303 300 300 299 294 294 294 299 301 301 302 305 308 311 309 317 316 307 301 270 248 231 215 189 177 177 169 165 156 149 149 138 130 136 138 139 137 124 108 79 81 84 68
309 300 300 299 295 297 301 300 303 300 299 312 312 310 314 316 314 317 302 292 253 244 207 187 179 176 172 163 159 155 146 146 145 152 157 150 136 126 117 97 85 89 80
307 306 305 303 305 302 297 293 295 296 307 305 305 309 311 310 311 316 308 289 250 233 192 169 164 164 161 150 153 145 142 151 152 151 144 116 118 130 140 125 121 119 84
310 306 304 303 305 302 294 292 289 289 290 299 303 302 304 305 309 311 314 284 238 219 170 154 156 163 157 154 137 137 134 136 146 133 137 137 135 144 141 152 120 125 109
314 309 307 304 305 300 301 303 294 296 301 302 300 303 307 306 309 314 309 296 246 197 187 174 174 169 166 159 150 144 146 150 145 138 145 142 152 155 149 166 109 139 127
300 304 302 300 299 304 307 308 311 312 308 309 313 317 317 312 324 322 320 306 251 192 201 182 180 180 168 158 157 158 158 158 143 144 152 154 152 150 154 167 160 160 120
286 286 287 295 298 300 300 301 300 307 316 317 320 320 324 329 327 323 320 310 238 202 198 190 184 184 167 162 165 170 152 154 158 155 154 157 160 155 164 170 168 169 130
298 295 297 297 293 295 294 292 294 301 305 308 316 323 330 329 325 326 325 304 241 210 203 194 190 183 175 170 169 170 172 171 162 158 163 161 165 156 167 169 170 155 122
283 284 299 295 297 298 298 298 305 309 308 312 319 319 324 324 334 328 320 315 266 233 208 196 186 191 178 173 171 172 170 166 165 169 164 162 161 162 165 168 166 154 151
293 300 300 299 293 296 300 304 309 309 309 313 310 312 320 330 314 311 316 306 308 239 215 195 188 187 184 176 173 174 171 168 170 169 162 159 158 159 160 161 150 143 130
295 294 294 296 306 307 306 309 313 310 312 312 313 313 327 319 313 311 308 311 304 298 221 199 190 183 179 183 180 173 169 170 170 161 157 161 158 146 140 146 144 129 141
304 307 306 298 300 312 316 310 313 313 313 312 314 316 323 321 316 312 311 309 308 309 268 201 191 185 180 179 183 177 172 177 174 160 157 160 154 144 153 153 147 144 145
307 309 315 310 319 323 318 320 315 310 312 314 317 319 319 319 318 315 315 313 309 304 293 208 197 186 181 174 173 175 165 159 162 163 151 157 153 153 148 147 153 148 142
319 327 334 327 329 327 324 320 311 307 316 316 318 320 320 320 318 322 321 318 314 309 307 223 196 186 177 173 168 165 152 151 150 153 147 150 152 153 151 145 140 143 132
313 314 326 326 338 332 323 323 321 323 324 322 318 319 321 320 317 323 325 325 324 318 324 293 182 172 169 165 152 145 148 147 145 150 145 142 146 144 145 138 137 140 146